This is the latest recevied weather packets stored in our database for station/object BV1EV-2. If no packets are shown the sender has not sent any weather packets the latest 10 day(s).
| Time | Temp. | Humidity | Pressure | Rain* | Wind** | Luminosity | Snow |
|---|---|---|---|---|---|---|---|
| 1777427867 | 29.44° C | 47% | 1009.3 hPa | - | - | - | - |
| 1777425467 | 27.22° C | 58% | 1009.5 hPa | - | - | - | - |
| 1777423067 | 26.67° C | 38% | 1009.4 hPa | - | - | - | - |
| 1777417070 | 27.22° C | 38% | 1009.6 hPa | - | - | - | - |
| 1777409868 | 27.78° C | 47% | 1008.8 hPa | - | - | - | - |
| 1777407468 | 27.22° C | 45% | 1008.3 hPa | - | - | - | - |
| 1777405068 | 27.22° C | 42% | 1008.3 hPa | - | - | - | - |
| 1777402668 | 27.78° C | 43% | 1008.5 hPa | - | - | - | - |
| 1777400268 | 27.22° C | 36% | 1008.8 hPa | - | - | - | - |
| 1777393068 | 29.44° C | 41% | 1010.2 hPa | - | - | - | - |
| 1777390668 | 28.33° C | 53% | 1010.7 hPa | - | - | - | - |
| 1777389468 | 27.78° C | 53% | 1010.7 hPa | - | - | - | - |
| 1777388268 | 27.78° C | 52% | 1010.9 hPa | - | - | - | - |
| 1777387067 | 28.89° C | 43% | 1011 hPa | - | - | - | - |
| 1777385867 | 28.33° C | 41% | 1011.1 hPa | - | - | - | - |
| 1777384667 | 28.89° C | 43% | 1011.1 hPa | - | - | - | - |
| 1777383467 | 28.33° C | 42% | 1011.2 hPa | - | - | - | - |
| 1777382267 | 28.33° C | 43% | 1011.1 hPa | - | - | - | - |
| 1777381067 | 28.33° C | 44% | 1011 hPa | - | - | - | - |
| 1777379867 | 27.78° C | 41% | 1010.8 hPa | - | - | - | - |
| 1777378667 | 27.78° C | 40% | 1010.6 hPa | - | - | - | - |
| 1777375067 | 28.89° C | 38% | 1010 hPa | - | - | - | - |
| 1777373867 | 30.56° C | 38% | 1009.6 hPa | - | - | - | - |
| 1777372667 | 31.67° C | 48% | 1009.8 hPa | - | - | - | - |
| 1777371467 | 31.67° C | 47% | 1009.5 hPa | - | - | - | - |
* Rain since midnight (hover to see other rain measurements)
** Current wind speed in m/s (hover to see current wind gust speed)